This is the latest recevied weather packets stored in our database for station/object W4TJP. If no packets are shown the sender has not sent any weather packets the latest 1 day(s).
| Time | Temp. | Humidity | Pressure | Rain* | Wind** | Luminosity | Snow |
|---|---|---|---|---|---|---|---|
| 1778022827 | 21.11° C | 47% | 1010.4 hPa | 0 mm | 0.45 m/s, 18° | 53 W/m² | - |
| 1778022525 | 21.11° C | 46% | 1010.6 hPa | 0 mm | 0 m/s | 65 W/m² | - |
| 1778022222 | 21.11° C | 46% | 1010.7 hPa | 0 mm | 0 m/s | 51 W/m² | - |
| 1778021919 | 21.67° C | 47% | 1010.6 hPa | 0 mm | 0.45 m/s, 125° | 65 W/m² | - |
| 1778021616 | 21.67° C | 45% | 1010.6 hPa | 0 mm | 0.45 m/s, 157° | 51 W/m² | - |
| 1778021311 | 21.67° C | 44% | 1010.3 hPa | 0 mm | 1.34 m/s, 122° | 69 W/m² | - |
| 1778021009 | 21.67° C | 44% | 1010.5 hPa | 0 mm | 0.45 m/s, 202° | 75 W/m² | - |
| 1778020706 | 21.67° C | 43% | 1010.3 hPa | 0 mm | 0.45 m/s, 150° | 67 W/m² | - |
| 1778020403 | 22.22° C | 43% | 1010.1 hPa | 0 mm | 0 m/s | 70 W/m² | - |
| 1778020099 | 22.22° C | 44% | 1010.2 hPa | 0 mm | 0 m/s | 63 W/m² | - |
| 1778019795 | 22.22° C | 42% | 1010.4 hPa | 0 mm | 0.45 m/s, 155° | 86 W/m² | - |
| 1778019492 | 22.22° C | 42% | 1010.1 hPa | 0 mm | 0.45 m/s, 125° | 90 W/m² | - |
| 1778019188 | 22.22° C | 41% | 1010.1 hPa | 0 mm | 0.45 m/s, 82° | 115 W/m² | - |
| 1778018886 | 22.22° C | 43% | 1010.3 hPa | 0 mm | 1.34 m/s, 142° | 121 W/m² | - |
| 1778018583 | 22.78° C | 44% | 1010.2 hPa | 0 mm | 1.34 m/s, 66° | 98 W/m² | - |
| 1778018281 | 22.78° C | 47% | 1009.9 hPa | 0 mm | 0.89 m/s, 132° | 122 W/m² | - |
| 1778017978 | 22.78° C | 45% | 1010.1 hPa | 0 mm | 0.89 m/s, 212° | 124 W/m² | - |
| 1778017676 | 23.33° C | 45% | 1010 hPa | 0 mm | 0 m/s | 87 W/m² | - |
| 1778017373 | 23.33° C | 43% | 1010 hPa | 0 mm | 1.34 m/s, 86° | 130 W/m² | - |
| 1778017071 | 23.89° C | 44% | 1009.8 hPa | 0 mm | 0 m/s | 361 W/m² | - |
| 1778016768 | 24.44° C | 42% | 1010.1 hPa | 0 mm | 0.89 m/s, 106° | 382 W/m² | - |
| 1778016463 | 23.89° C | 41% | 1010.1 hPa | 0 mm | 0.89 m/s, 124° | 389 W/m² | - |
| 1778016161 | 23.89° C | 41% | 1010.1 hPa | 0 mm | 1.34 m/s, 146° | 434 W/m² | - |
| 1778015858 | 23.89° C | 45% | 1010.2 hPa | 0 mm | 0.45 m/s, 27° | 382 W/m² | - |
| 1778015555 | 23.89° C | 45% | 1010.4 hPa | 0 mm | 1.79 m/s, 93° | 447 W/m² | - |
* Rain latest hour (hover to see other rain measurements)
** Current wind speed in m/s (hover to see current wind gust speed)